Weather History for Sheridan, WY

Change the Weather History Date:

Tuesday, January 3, 2012

  Actual Average Record
Temperature  
Mean Temperature 39 °F 23 °F  
Max Temperature 52 °F 36 °F 61 °F (2003)
Min Temperature 26 °F 11 °F -29 °F (1912)
Degree Days  
Heating Degree Days 26 42  
Month to date heating degree days 107 126  
Since 1 July heating degree days 2944 3309  
Cooling Degree Days 0 0  
Month to date cooling degree days 0 0  
Year to date cooling degree days 0 0  
Moisture  
Dew Point 24 °F    
Average Humidity 54    
Maximum Humidity 75    
Minimum Humidity 33    
Precipitation  
Precipitation 0.00 in 0.02 in 0.52 in (1913)
Month to date precipitation 0.00 0.05  
Year to date precipitation 0.00 0.05  
Sea Level Pressure  
Sea Level Pressure 30.18 in    
Wind  
Wind Speed 9 mph (NW)    
Max Wind Speed 26 mph    
Max Gust Speed 31 mph    
Visibility 10 miles    
Events      
T = Trace of Precipitation, MM = Missing Value Source: NWS Daily Summary

Daily Weather History Graph

Daily Weather History Graph

Search for Another Location

Airport:

Trip Planner

Search our weather history database for the weather conditions in past years. The results will help you decide how hot, cold, wet, or windy it might be!

Date:

Astronomy

Jan. 03, 2012 Rise Set
Actual Time 7:45 AM MST 4:39 PM MST
Civil Twilight 7:11 AM MST 5:12 PM MST
Nautical Twilight 6:35 AM MST 5:49 PM MST
Astronomical Twilight 5:59 AM MST 6:25 PM MST
Moon 12:32 PM MST (1/3) 2:34 AM MST (1/3)
Length of Visible Light 10h 00m
Length of Day
8h 54m
Waxing Gibbous, 73% of the Moon is Illuminated
Jan 3
Waxing Gibbous
Jan 9
Full
Jan 16
Last Quarter
Jan 23
New
Jan 30
First Quarter

Hourly Weather History & Observations

Time (MST) Temp. Windchill Dew Point Humidity Pressure Visibility Wind Dir Wind Speed Gust Speed Precip Events Conditions
12:53 AM 50.0 °F - 23.0 °F 35% 30.01 in 10.0 mi SW 15.0 mph 19.6 mph N/A   Clear
1:53 AM 46.0 °F 43.9 °F 23.0 °F 40% 30.01 in 10.0 mi Variable 4.6 mph - N/A   Clear
2:53 AM 43.0 °F 39.5 °F 23.0 °F 45% 30.03 in 10.0 mi North 5.8 mph - N/A   Clear
3:53 AM 37.9 °F 31.5 °F 25.0 °F 60% 30.06 in 10.0 mi WNW 9.2 mph - N/A   Clear
4:53 AM 41.0 °F 35.2 °F 23.0 °F 49% 30.06 in 10.0 mi ESE 9.2 mph - N/A   Clear
5:53 AM 43.0 °F 41.3 °F 21.9 °F 43% 30.05 in 10.0 mi NNE 3.5 mph - N/A   Clear
6:53 AM 39.9 °F 36.7 °F 21.9 °F 49% 30.07 in 10.0 mi North 4.6 mph - N/A   Clear
7:53 AM 44.1 °F 41.5 °F 19.0 °F 37% 30.10 in 10.0 mi North 4.6 mph - N/A   Clear
8:53 AM 43.0 °F 38.8 °F 21.9 °F 43% 30.14 in 10.0 mi NNW 6.9 mph - N/A   Clear
9:53 AM 45.0 °F 41.2 °F 27.0 °F 49% 30.19 in 10.0 mi West 6.9 mph - N/A   Clear
10:53 AM 46.9 °F - 26.1 °F 44% 30.19 in 10.0 mi NW 13.8 mph - N/A   Clear
11:53 AM 46.9 °F - 27.0 °F 46% 30.20 in 10.0 mi NW 18.4 mph - N/A   Clear
12:53 PM 48.9 °F - 28.0 °F 44% 30.14 in 10.0 mi NW 21.9 mph - N/A   Clear
1:53 PM 48.9 °F - 28.9 °F 46% 30.15 in 10.0 mi NNW 16.1 mph - N/A   Clear
2:53 PM 48.0 °F - 27.0 °F 44% 30.20 in 10.0 mi North 11.5 mph - N/A   Clear
3:53 PM 45.0 °F 38.9 °F 25.0 °F 46% 30.26 in 10.0 mi North 12.7 mph - N/A   Clear
4:53 PM 41.0 °F 34.7 °F 25.0 °F 53% 30.28 in 10.0 mi SSW 10.4 mph - N/A   Clear
5:53 PM 35.1 °F 26.9 °F 26.1 °F 70% 30.27 in 10.0 mi West 11.5 mph - N/A   Clear
6:53 PM 32.0 °F 25.6 °F 24.1 °F 73% 30.32 in 10.0 mi SSE 6.9 mph - N/A   Clear
7:53 PM 30.9 °F 25.2 °F 23.0 °F 72% 30.32 in 10.0 mi South 5.8 mph - N/A   Clear
8:53 PM 28.9 °F 21.1 °F 21.9 °F 75% 30.32 in 10.0 mi SSW 8.1 mph - N/A   Clear
9:53 PM 30.0 °F - 21.9 °F 72% 30.30 in 10.0 mi Calm Calm - N/A   Clear
10:53 PM 28.0 °F 21.7 °F 21.0 °F 75% 30.29 in 10.0 mi North 5.8 mph - N/A   Clear
11:53 PM 28.0 °F 22.8 °F 21.0 °F 75% 30.28 in 10.0 mi SSE 4.6 mph - N/A   Clear